Starlink 31345

operational
NORAD ID: 58941 Int'l Des: 2024-027 Owner: SPXS Country: US Constellation: starlink
LEOCIRCULAR

Starlink 31345について

説明を読み込み中...

リアルタイム位置

3D地球を読み込み中...

次回通過

高度履歴

Altitude vs Time

uPlot chart will show altitude changes over time

軌道要素

1 58941U 24027L 25306.14445522 -.00346616 00000-0 -11487-1 0 9995
2 58941 53.1571 181.8390 0003034 152.5730 207.5432 15.32228482 97808
Epoch: Nov 2, 2025 • Age: 30 hours

現在のステータス

高度 477.5 km
速度 7.63 km/s
衛星直下点 53.31°N, 78.48°E
打ち上げ日 Feb 10, 2024
運用期間 1.7 years
タイプ internet

技術仕様

分類 Payload
質量 730.00 kg
乾燥質量 700.00 kg
総質量 730.00 kg
長さ 0.30 m
直径 4.10 m
スパン 29.00 m
形状 Box + pan
製造者 SPXS
バスタイプ Starlink V2M
フェーズステータス In Orbit
所有者/国 SPXS/US

大規模コンステレーション

Loading constellations...